Regional Weather Roundup
Issued by NWS Upton, NY

Current Version | Previous Version | Text Only | Print | Product List | Glossary On
Versions: 1 2 3 4 5 6 7 8 9 10 11 12 13 14 15 16 17 18 19 20 21 22 23 24 25 26 27
000 ASUS41 KOKX 231909 RWROKX REGIONAL WEATHER ROUNDUP NATIONAL WEATHER SERVICE NEW YORK NY 300 PM EDT SUN JUL 23 2017 NOTE: "FAIR" INDICATES FEW OR NO CLOUDS BELOW 12,000 FEET WITH NO SIGNIFICANT WEATHER AND/OR OBSTRUCTIONS TO VISIBILITY. NYZ071-072-176-178-NJZ106-104-232000- NEW YORK CITY METRO AREA CITY SKY/WX TMP DP RH WIND PRES REMARKS Central Park CLOUDY 75 70 84 CALM 29.85F Bronx Bot Gard N/A 73 64 73 SE6 29.85R LaGuardia APRT CLOUDY 77 70 79 NE5 29.82S Kennedy INTL PTSUNNY 80 69 69 SE8 29.83F Breezy Point N/A 75 N/A N/A SE6 N/A Newark/Liberty CLOUDY 79 68 69 S6 29.82F Teterboro CLOUDY 78 68 71 S5 29.81F $$ NYZ177-179-078>081-232000- LONG ISLAND NEW YORK CITY SKY/WX TMP DP RH WIND PRES REMARKS Jones Beach N/A 75 N/A N/A SE9 N/A Matinecock PT N/A 73 N/A N/A E16 N/A Farmingdale CLOUDY 77 68 73 SE12 29.83S MacArthur/ISP CLOUDY 77 68 73 SE12 29.82F Shirley CLOUDY 78 68 71 VRB3 29.84F Mt Sinai Harb N/A N/A N/A N/A E12 N/A Westhampton PTSUNNY 76 62 62 NE9 29.85R East Hampton FAIR 74 60 59 E12G17 29.85F Montauk N/A 74 62 66 NE8G18 29.87R $$ NYZ052-065-067-232000- HUDSON VALLEY CITY SKY/WX TMP DP RH WIND PRES REMARKS White Plains NOT AVBL Larchmont Harb N/A 73 N/A N/A NE16 N/A Croton O-T Hud N/A 81 N/A N/A S6 N/A Newburgh CLOUDY 79 68 69 E9 29.84S Montgomery CLOUDY 79 68 69 N6 29.82F Poughkeepsie MOSUNNY 80 65 59 NE8 29.81F Albany CLOUDY 77 64 64 N5 29.84S $$ NJZ001-105-106-008-010-013-015-019>022-104-232000- NEW JERSEY CITY SKY/WX TMP DP RH WIND PRES REMARKS Newark/Liberty CLOUDY 79 68 69 S6 29.82F Teterboro CLOUDY 78 68 71 S5 29.81F Caldwell LGT RAIN 74 69 85 SE5 29.83F Somerville CLOUDY 81 71 71 CALM 29.79F Linden CLOUDY 79 65 63 CALM 29.82F Perth Amboy N/A 75 N/A N/A E10 N/A Sussex CLOUDY 80 68 66 CALM 29.82F Andover N/A 77 68 73 SW3 29.83F Trenton PTSUNNY 82 67 60 SE12 29.80F Millville PTSUNNY 83 77 82 E10 29.77F HX 92 Atlantic City CLOUDY 81 72 74 E10 29.79F Wrightstown PTSUNNY 80 65 60 N3 29.79F Toms River PTSUNNY 81 66 60 E10G17 29.82F Belmar CLOUDY 79 66 64 SE9 29.83F $$ PAZ047>061-062-071-232000- EASTERN PENNSYLVANIA CITY SKY/WX TMP DP RH WIND PRES REMARKS Philadelphia PTSUNNY 87 71 58 E10 29.78F HX 93 Allentown PTSUNNY 84 67 56 E6 29.80F Scranton CLOUDY 77 65 66 CALM 29.82F $$ CTZ002-004>006-009-010-012-RIZ004-006-007-MAZ004-011-015-232000- SOUTHERN NEW ENGLAND IN CT CITY SKY/WX TMP DP RH WIND PRES REMARKS Bradley INTL PTSUNNY 80 58 46 NE6 29.85S Hartford MOSUNNY 81 60 48 CALM 29.83S Danbury CLOUDY 79 67 66 SE10 29.85S Wtrbury/Oxford CLOUDY 77 63 61 S5 29.87S Bridgeport PTSUNNY 78 66 66 E14 29.84S Meriden CLOUDY 79 65 62 VRB5 29.84R New Haven CLOUDY 76 61 59 E10 29.85S Chester FAIR 77 61 57 SE8 29.86S Groton CLOUDY 76 58 53 E10 29.85S Wilimantic PTSUNNY 81 57 43 SE5 29.85S IN RI CITY SKY/WX TMP DP RH WIND PRES REMARKS Providence PTSUNNY 77 54 44 E7 29.87F Block Island CLOUDY 71 61 70 NE10 29.87S Westerly CLOUDY 78 57 48 NE9 29.86S IN MA CITY SKY/WX TMP DP RH WIND PRES REMARKS Boston CLOUDY 70 54 56 E13 29.90S Worcester MOSUNNY 72 47 40 CALM 29.90S Westfield MOSUNNY 81 57 43 VRB3 29.85S Provincetown MOSUNNY 70 57 63 NE12 29.89S Nantucket SUNNY 72 60 66 NE16 29.85S $$ ANZ330-335-338-340-345-350-353-355-232000- COASTAL MARINE OBSERVATIONS STATION/POSITION TIME SKY/WX TEMP WIND PRES VSBY WAVE AIR SEA DIR/SP/G HT/PER (UTC) (F) (DEG/KT/KT) (MB) (MI) (FT/S) NY HARB ENTRANCE 1750 75 76 100/ 10/ 12 1009.6 3/ 6 20 S FIRE ISLAND 1850 74 77 70/ 10/ 12 1009.5 4/ 7 GREAT SOUTH BAY 1815 73 83 100/ 14/ 17 N/A 23 SSW MONTAUK P 1750 72 75 1010.7 3/ 7 15 E BARNEGAT LI 1830 78 N/A 4/ 7 HUDSON CANYON 1750 74 79 60/ 12/ 14 1008.7 6/ 7 KINGS POINT 1836 75 73 CALM 1009.9 EXECUTION ROCKS 1845 74 80/ 12/ 16 N/A CENTRAL LI SOUND NOT AVBL EASTERN LI SOUND NOT AVBL ROBBINS REEF 1836 180/ 11/ 13 1010.6 $$ >>>>>>>>>>>>>>>>>>>>>>>>>>>> KEY <<<<<<<<<<<<<<<<<<<<<<<<<<< > < > SKY/WX - Sky Condition/Present Weather < > TMP - Temperature in Fahrenheit < > DP - Dew Point in Fahrenheit < > RH - Relative Humidity in Percent < > WIND - Direction (from) and Speed in MPH < > PRES - Mean Sea Level Pressure (inches of Hg) < > WCI - Wind Chill Index < > VSB - VISIBILITY IN MILES < > HX - HEAT INDEX < > TC - TEMPERATURE IN CELSIUS < > VRB - VARIABLE WIND DIRECTION < > < >>>>>>>>>>>>>>>>>>>>>>>>>>>> KEY <<<<<<<<<<<<<<<<<<<<<<<<<<<

USA.gov is the U.S. government's official web portal to all federal, state and local government web resources and services.